Location: Elliott Corner
(37.4627°N, 119.7746°W)
Time: 22:00:47
(UTC+00:00)

NOSS 3-2 (C) - Pass Details

Date: 10 September 2024
Orbit: 699 x 1512 km, 63.4° (Epoch: 11 October)

Event Time Altitude Azimuth Distance (km) Brightness Sun altitude
Exits shadow 12:18:02 - 191° (SSW) 2,560 5.4 -16.2°
Reaches altitude 10° 12:19:01 10° 188° (S) 2,191 5.1 -16.0°
Maximum altitude 12:23:43 47° 115° (ESE) 1,011 3.9 -15.1°
Drops below altitude 10° 12:29:06 10° 43° (NE) 2,500 6.6 -14.1°
Sets 12:31:52 0° 38° (NE) 3,560 7.4 -13.6°
